• In France
  • List of Countries
  • For 7 days
  • Water Temperature
  • Satellite Maps
  • Weather Map
  • Weather Widgets
  • user-avatar
    Login

    Hourly Weather Graz

    Today, 16 October, Tuesday

    Time Temperature Precipitation Wind Pressure Humidity
    00:00 +10°C° 0 mm 1 mps 727 mmHg 82%
    01:00 +10°C° 0 mm 1 mps 727 mmHg 84%
    02:00 +10°C° 0 mm 1 mps 726 mmHg 85%
    03:00 +10°C° 0 mm 1 mps 726 mmHg 86%
    04:00 +10°C° 0 mm 1 mps 726 mmHg 87%
    05:00 +10°C° 0 mm 1 mps 726 mmHg 87%
    06:00 +10°C° 0 mm 1 mps 727 mmHg 87%
    07:00 +10°C° 0 mm 1 mps 727 mmHg 87%
    08:00 +13°C° 0 mm 1 mps 727 mmHg 79%
    09:00 +15°C° 0 mm 1 mps 727 mmHg 71%
    10:00 +18°C° 0 mm 1 mps 727 mmHg 63%
    11:00 +19°C° 0 mm 1 mps 727 mmHg 60%
    12:00 +20°C° 0 mm 1 mps 727 mmHg 58%
    13:00 +21°C° 0 mm 1 mps 727 mmHg 56%
    14:00 +20°C° 0 mm 1 mps 727 mmHg 60%
    15:00 +19°C° 0 mm 1 mps 727 mmHg 64%
    16:00 +19°C° 0 mm 1 mps 727 mmHg 69%
    17:00 +16°C° 0 mm 1 mps 727 mmHg 76%
    18:00 +14°C° 0 mm 1 mps 727 mmHg 82%
    19:00 +13°C° 0 mm 1 mps 727 mmHg 89%
    20:00 +12°C° 0 mm 1 mps 727 mmHg 90%
    21:00 +12°C° 0 mm 1 mps 727 mmHg 91%
    22:00 +12°C° 0 mm 1 mps 727 mmHg 92%
    23:00 +12°C° 0 mm 1 mps 727 mmHg 92%

    Tomorrow, 17 October, Wednesday

    Time Temperature Precipitation Wind Pressure Humidity
    00:00 +12°C° 0 mm 1 mps 727 mmHg 92%
    01:00 +11°C° 0 mm 1 mps 727 mmHg 92%
    02:00 +11°C° 0 mm 1 mps 727 mmHg 92%
    03:00 +11°C° 0 mm 1 mps 727 mmHg 91%
    04:00 +11°C° 0 mm 1 mps 727 mmHg 91%
    05:00 +11°C° 0.1 mm 1 mps 727 mmHg 90%
    06:00 +11°C° 0.1 mm 0 mps 727 mmHg 89%
    07:00 +11°C° 0.1 mm 0 mps 727 mmHg 88%
    08:00 +13°C° 0.2 mm 0 mps 727 mmHg 82%
    09:00 +14°C° 0.2 mm 0 mps 727 mmHg 77%
    10:00 +16°C° 0.2 mm 0 mps 727 mmHg 71%
    11:00 +18°C° 0.5 mm 1 mps 727 mmHg 74%
    12:00 +18°C° 0.5 mm 1 mps 726 mmHg 77%
    13:00 +18°C° 0.5 mm 1 mps 726 mmHg 80%
    14:00 +18°C° 0.6 mm 1 mps 726 mmHg 83%
    15:00 +16°C° 0.6 mm 1 mps 725 mmHg 86%
    16:00 +16°C° 0.6 mm 1 mps 725 mmHg 89%
    17:00 +15°C° 0.5 mm 1 mps 725 mmHg 91%
    18:00 +14°C° 0.5 mm 1 mps 725 mmHg 93%
    19:00 +14°C° 0.5 mm 1 mps 725 mmHg 95%
    20:00 +14°C° 0.7 mm 1 mps 726 mmHg 95%
    21:00 +14°C° 0.7 mm 1 mps 726 mmHg 95%
    22:00 +13°C° 0.7 mm 1 mps 726 mmHg 95%
    23:00 +13°C° 0.4 mm 1 mps 726 mmHg 95%

    Day after tomorrow, 18 October, Thursday

    Time Temperature Precipitation Wind Pressure Humidity
    00:00 +13°C° 0.4 mm 1 mps 725 mmHg 95%
    01:00 +13°C° 0.4 mm 1 mps 725 mmHg 95%
    02:00 +13°C° 0.2 mm 1 mps 725 mmHg 94%
    03:00 +12°C° 0.2 mm 0 mps 725 mmHg 94%
    04:00 +12°C° 0.2 mm 0 mps 725 mmHg 94%
    05:00 +12°C° 0.2 mm 0 mps 725 mmHg 94%
    06:00 +12°C° 0.2 mm 0 mps 725 mmHg 94%
    07:00 +11°C° 0.2 mm 0 mps 725 mmHg 94%
    08:00 +13°C° 0.2 mm 0 mps 725 mmHg 90%
    09:00 +14°C° 0.2 mm 0 mps 725 mmHg 86%
    10:00 +16°C° 0.2 mm 1 mps 725 mmHg 82%
    11:00 +18°C° 0.1 mm 1 mps 725 mmHg 79%
    12:00 +18°C° 0.1 mm 1 mps 725 mmHg 77%
    13:00 +19°C° 0.1 mm 1 mps 725 mmHg 74%
    14:00 +18°C° 0.1 mm 1 mps 725 mmHg 77%
    15:00 +18°C° 0.1 mm 1 mps 725 mmHg 80%
    16:00 +16°C° 0.1 mm 1 mps 725 mmHg 82%
    17:00 +14°C° 0.1 mm 0 mps 725 mmHg 86%
    18:00 +13°C° 0.1 mm 0 mps 725 mmHg 90%
    19:00 +12°C° 0.1 mm 0 mps 725 mmHg 94%
    20:00 +12°C° 0 mm 0 mps 725 mmHg 94%
    21:00 +12°C° 0 mm 0 mps 726 mmHg 94%
    22:00 +12°C° 0 mm 1 mps 726 mmHg 94%
    23:00 +12°C° 0 mm 1 mps 726 mmHg 94%

    19 October, Friday

    Time Temperature Precipitation Wind Pressure Humidity
    00:00 +12°C° 0 mm 1 mps 726 mmHg 94%
    01:00 +12°C° 0 mm 1 mps 726 mmHg 94%
    02:00 +12°C° 0 mm 1 mps 726 mmHg 94%
    03:00 +12°C° 0 mm 1 mps 726 mmHg 94%
    04:00 +12°C° 0 mm 1 mps 726 mmHg 94%
    05:00 +11°C° 0 mm 1 mps 726 mmHg 94%
    06:00 +11°C° 0 mm 1 mps 726 mmHg 94%
    07:00 +11°C° 0 mm 1 mps 726 mmHg 93%
    08:00 +13°C° 0 mm 1 mps 727 mmHg 86%
    09:00 +15°C° 0 mm 1 mps 727 mmHg 78%
    10:00 +16°C° 0 mm 0 mps 727 mmHg 70%
    11:00 +19°C° 0 mm 1 mps 727 mmHg 66%
    12:00 +20°C° 0 mm 1 mps 727 mmHg 62%
    13:00 +20°C° 0 mm 1 mps 727 mmHg 58%
    14:00 +20°C° 0 mm 1 mps 727 mmHg 61%
    15:00 +19°C° 0 mm 1 mps 727 mmHg 65%
    16:00 +19°C° 0 mm 1 mps 727 mmHg 68%
    17:00 +16°C° 0 mm 1 mps 727 mmHg 74%
    18:00 +14°C° 0 mm 1 mps 727 mmHg 80%
    19:00 +12°C° 0 mm 1 mps 727 mmHg 86%
    20:00 +12°C° 0 mm 1 mps 728 mmHg 87%
    21:00 +12°C° 0 mm 1 mps 728 mmHg 88%
    22:00 +11°C° 0 mm 1 mps 728 mmHg 89%
    23:00 +11°C° 0 mm 1 mps 728 mmHg 89%

    20 October, Saturday

    Time Temperature Precipitation Wind Pressure Humidity
    00:00 +11°C° 0 mm 1 mps 728 mmHg 90%
    01:00 +10°C° 0 mm 1 mps 729 mmHg 90%
    02:00 +10°C° 0 mm 1 mps 729 mmHg 91%
    03:00 +10°C° 0 mm 1 mps 729 mmHg 91%
    04:00 +10°C° 0 mm 1 mps 729 mmHg 91%
    05:00 +10°C° 0 mm 1 mps 729 mmHg 91%
    06:00 +10°C° 0 mm 1 mps 729 mmHg 91%
    07:00 +10°C° 0 mm 1 mps 729 mmHg 91%
    08:00 +12°C° 0 mm 1 mps 730 mmHg 81%
    09:00 +15°C° 0 mm 1 mps 730 mmHg 72%
    10:00 +18°C° 0 mm 1 mps 730 mmHg 63%
    11:00 +19°C° 0 mm 1 mps 730 mmHg 60%
    12:00 +19°C° 0 mm 1 mps 730 mmHg 56%
    13:00 +20°C° 0 mm 1 mps 730 mmHg 53%
    14:00 +19°C° 0 mm 1 mps 730 mmHg 57%
    15:00 +18°C° 0 mm 1 mps 730 mmHg 61%
    16:00 +18°C° 0 mm 1 mps 729 mmHg 65%
    17:00 +15°C° 0 mm 1 mps 730 mmHg 72%
    18:00 +13°C° 0 mm 1 mps 730 mmHg 78%
    19:00 +12°C° 0 mm 1 mps 730 mmHg 84%
    20:00 +11°C° 0 mm 1 mps 731 mmHg 86%
    21:00 +11°C° 0 mm 1 mps 731 mmHg 87%
    22:00 +11°C° 0 mm 1 mps 731 mmHg 89%
    23:00 +10°C° 0 mm 1 mps 731 mmHg 90%

    21 October, Sunday

    Time Temperature Precipitation Wind Pressure Humidity
    00:00 +10°C° 0 mm 1 mps 731 mmHg 91%
    01:00 +10°C° 0 mm 1 mps 731 mmHg 92%
    02:00 +9°C° 0 mm 1 mps 731 mmHg 92%
    03:00 +9°C° 0 mm 1 mps 731 mmHg 93%
    04:00 +8°C° 0 mm 1 mps 731 mmHg 93%
    05:00 +8°C° 0 mm 1 mps 732 mmHg 92%
    06:00 +8°C° 0 mm 1 mps 732 mmHg 92%
    07:00 +8°C° 0 mm 1 mps 732 mmHg 91%
    08:00 +10°C° 0 mm 1 mps 732 mmHg 82%
    09:00 +12°C° 0 mm 1 mps 732 mmHg 73%
    10:00 +14°C° 0 mm 1 mps 732 mmHg 64%
    11:00 +14°C° 0 mm 1 mps 732 mmHg 63%
    12:00 +15°C° 0 mm 1 mps 732 mmHg 62%
    13:00 +16°C° 0 mm 1 mps 732 mmHg 62%
    14:00 +15°C° 0 mm 1 mps 731 mmHg 64%
    15:00 +15°C° 0 mm 1 mps 731 mmHg 67%
    16:00 +15°C° 0 mm 1 mps 731 mmHg 70%
    17:00 +13°C° 0 mm 1 mps 731 mmHg 77%
    18:00 +11°C° 0 mm 1 mps 731 mmHg 83%
    19:00 +9°C° 0 mm 0 mps 731 mmHg 89%
    20:00 +8°C° 0 mm 0 mps 731 mmHg 90%
    21:00 +9°C° 0 mm 1 mps 731 mmHg 91%
    22:00 +9°C° 0 mm 1 mps 731 mmHg 92%
    23:00 +8°C° 0 mm 1 mps 731 mmHg 92%
    Show more